This demonstration page uses our WeatherBlox Daily Observations layout. Learn more.

Left ArrowRight Arrow

Hourly Observations for April 17, 2020

Temp ( °F °C ) Dew Point ( °F °C ) Humidity (%) Winds ( mph kmh ) Pressure ( in mb ) Visibility ( mi km ) Precip ( " mm )
12:15 am 00:15 Clear 34 1 30 -1 87 87 Calm 30.32 1027 10 16.0934 0 0
12:35 am 00:35 Clear 32 0 30 -1 93 93 WNW 3 6 30.32 1027 10 16.0934 0 0
12:55 am 00:55 Clear 34 1 30 -1 87 87 WNW 3 6 30.33 1027 10 16.0934 0 0
1:15 am 01:15 Clear 34 1 28 -2 81 81 Calm 30.33 1027 10 16.0934 0 0
1:35 am 01:35 Clear 36 2 28 -2 75 75 Calm 30.33 1027 10 16.0934 0 0
1:55 am 01:55 Clear 34 1 30 -1 87 87 Calm 30.33 1027 10 16.0934 0 0
2:15 am 02:15 Clear 34 1 30 -1 87 87 Calm 30.33 1027 10 16.0934 0 0
2:35 am 02:35 Clear 34 1 30 -1 87 87 Calm 30.33 1027 10 16.0934 0 0
2:55 am 02:55 Clear 32 0 30 -1 93 93 Calm 30.33 1027 10 16.0934 0 0
3:15 am 03:15 Clear 32 0 30 -1 93 93 Calm 30.33 1027 10 16.0934 0 0
3:35 am 03:35 Partly Cloudy 32 0 28 -2 87 87 WSW 5 7 30.33 1027 10 16.0934 0 0
3:55 am 03:55 Mostly Cloudy 32 0 30 -1 93 93 SW 5 7 30.33 1027 10 16.0934 0 0
4:15 am 04:15 Cloudy 32 0 30 -1 93 93 W 3 6 30.33 1027 10 16.0934 0 0
4:35 am 04:35 Cloudy 32 0 30 -1 93 93 W 3 6 30.34 1027 10 16.0934 0 0
4:55 am 04:55 Cloudy 32 0 30 -1 93 93 W 3 6 30.34 1027 10 16.0934 0 0
5:15 am 05:15 Cloudy 34 1 28 -2 81 81 Calm 30.33 1027 10 16.0934 0 0
5:35 am 05:35 Cloudy 34 1 28 -2 81 81 Calm 30.34 1027 10 16.0934 0 0
5:55 am 05:55 Cloudy 32 0 28 -2 87 87 Calm 30.35 1028 10 16.0934 0 0
6:15 am 06:15 Mostly Cloudy 32 0 30 -1 93 93 Calm 30.35 1028 10 16.0934 0 0
6:35 am 06:35 Mostly Cloudy 32 0 30 -1 93 93 Calm 30.35 1028 10 16.0934 0 0
6:55 am 06:55 Partly Cloudy 32 0 30 -1 93 93 Calm 30.37 1029 10 16.0934 0 0
7:15 am 07:15 Partly Cloudy 32 0 30 -1 93 93 Calm 30.37 1029 10 16.0934 0 0
7:35 am 07:35 Sunny 34 1 32 0 93 93 Calm 30.38 1029 10 16.0934 0 0
7:55 am 07:55 Partly Cloudy 36 2 32 0 87 87 Calm 30.37 1028 10 16.0934 0 0
8:15 am 08:15 Cloudy 37 3 30 -1 75 75 Calm 30.37 1028 10 16.0934 0 0
8:35 am 08:35 Cloudy 41 5 30 -1 66 66 Calm 30.37 1029 10 16.0934 0 0
8:55 am 08:55 Cloudy 41 5 30 -1 66 66 SW 3 6 30.37 1029 10 16.0934 0 0
9:15 am 09:15 Cloudy 43 6 30 -1 61 61 S 3 6 30.34 1028 10 16.0934 0 0
9:35 am 09:35 Cloudy 45 7 28 -2 53 53 SSW 6 9 30.34 1027 10 16.0934 0 0
9:55 am 09:55 Cloudy 45 7 30 -1 57 57 S 6 9 30.33 1027 10 16.0934 0 0
10:15 am 10:15 Cloudy 46 8 28 -2 50 50 S 8 13 30.33 1027 10 16.0934 0 0
10:35 am 10:35 Cloudy 46 8 28 -2 50 50 S 13 20 30.32 1027 10 16.0934 0 0
10:55 am 10:55 Cloudy 48 9 32 0 54 54 S 12 19 30.31 1026 10 16.0934 0 0
11:15 am 11:15 Cloudy 50 10 32 0 50 50 S 7 11 30.3 1026 10 16.0934 0 0
11:35 am 11:35 Cloudy 52 11 32 0 47 47 S 12 19 30.28 1026 10 16.0934 0 0
11:55 am 11:55 Mostly Cloudy 54 12 34 1 47 47 SW 16 26 30.27 1025 10 16.0934 0 0
12:15 pm 12:15 Mostly Cloudy 54 12 34 1 47 47 SW 15 24 30.25 1024 10 16.0934 0 0
12:35 pm 12:35 Cloudy 54 12 32 0 44 44 S 14 22 30.23 1024 10 16.0934 0 0
12:55 pm 12:55 Partly Cloudy 55 13 32 0 41 41 SW 13 20 30.21 1023 10 16.0934 0 0
1:15 pm 13:15 Mostly Cloudy 55 13 34 1 44 44 S 14 22 30.19 1022 10 16.0934 0 0
1:35 pm 13:35 Cloudy 55 13 34 1 44 44 SSW 12 19 30.18 1022 10 16.0934 0 0
1:55 pm 13:55 Cloudy 55 13 34 1 44 44 S 15 24 30.17 1022 10 16.0934 0 0
2:15 pm 14:15 Cloudy 55 13 36 2 47 47 S 13 20 30.16 1021 10 16.0934 0 0
2:35 pm 14:35 Mostly Cloudy 55 13 36 2 47 47 SSW 13 20 30.15 1021 10 16.0934 0 0
2:55 pm 14:55 Partly Cloudy 55 13 36 2 47 47 S 16 26 30.14 1021 10 16.0934 0 0
3:15 pm 15:15 Mostly Cloudy 55 13 34 1 44 44 S 15 24 30.11 1020 10 16.0934 0 0
3:35 pm 15:35 Cloudy 55 13 36 2 47 47 S 12 19 30.1 1019 10 16.0934 0 0
3:55 pm 15:55 Cloudy 55 13 36 2 47 47 SSW 15 24 30.09 1019 10 16.0934 0 0
4:15 pm 16:15 Cloudy 54 12 36 2 51 51 S 12 19 30.07 1018 10 16.0934 0 0
4:35 pm 16:35 Partly Cloudy 54 12 37 3 54 54 SSW 9 15 30.05 1018 10 16.0934 0 0
4:55 pm 16:55 Sunny 54 12 37 3 54 54 S 7 11 30.02 1017 10 16.0934 0 0
5:15 pm 17:15 Sunny 55 13 37 3 51 51 S 15 24 30 1016 10 16.0934 0 0
5:35 pm 17:35 Mostly Cloudy 55 13 37 3 51 51 S 13 20 30 1016 10 16.0934 0 0
5:55 pm 17:55 Cloudy 55 13 37 3 51 51 S 9 15 30 1016 10 16.0934 0 0
6:15 pm 18:15 Cloudy 57 14 37 3 48 48 S 7 11 29.98 1015 10 16.0934 0 0
6:35 pm 18:35 Cloudy 55 13 39 4 55 55 S 5 7 29.98 1015 10 16.0934 0 0
6:55 pm 18:55 Cloudy 55 13 39 4 55 55 S 7 11 29.95 1014 10 16.0934 0 0
7:15 pm 19:15 Cloudy 55 13 39 4 55 55 Calm 29.94 1014 10 16.0934 0 0
7:35 pm 19:35 Cloudy 55 13 37 3 51 51 Calm 29.94 1014 10 16.0934 0 0
7:55 pm 19:55 Cloudy 55 13 37 3 51 51 E 3 6 29.95 1014 10 16.0934 0 0
8:15 pm 20:15 Cloudy 54 12 39 4 58 58 ESE 5 7 29.95 1014 10 16.0934 0 0
8:35 pm 20:35 Cloudy 54 12 41 5 63 63 E 3 6 29.95 1014 10 16.0934 0 0
8:55 pm 20:55 Cloudy 52 11 43 6 72 72 Calm 29.95 1014 10 16.0934 0 0
9:15 pm 21:15 Cloudy 52 11 45 7 77 77 ENE 7 11 29.93 1014 10 16.0934 0 0
9:35 pm 21:35 Cloudy 50 10 45 7 82 82 ENE 6 9 29.93 1013 10 16.0934 0 0
9:55 pm 21:55 Cloudy 50 10 45 7 82 82 E 3 6 29.93 1013 10 16.0934 0 0
10:15 pm 22:15 Cloudy 50 10 45 7 82 82 Calm 29.92 1013 10 16.0934 0 0
10:35 pm 22:35 Cloudy 50 10 45 7 82 82 Calm 29.92 1013 10 16.0934 0 0
10:55 pm 22:55 Cloudy 50 10 45 7 82 82 NNE 3 6 29.91 1013 10 16.0934 0 0
11:15 pm 23:15 Cloudy 50 10 45 7 82 82 N 5 7 29.89 1012 10 16.0934 0 0
11:35 pm 23:35 Cloudy 48 9 45 7 87 87 N 3 6 29.88 1012 10 16.0934 0 0
11:55 pm 23:55 Partly Cloudy 46 8 45 7 93 93 N 5 7 29.88 1012 10 16.0934 0 0

Powered by AerisWeather